DW8427 Weather Reports


time (UTC)temp
F
wind
direction
speed
knots
gust
knots
rain 1hr
in
rain 24hr
in
rain mn
in
humidity
%
barometer
mb
20240614110033 56 129 0.0 6.1 0.00 0.00 0.00 72 1013.8
20240614104536 56 103 1.7 5.2 0.00 0.00 0.00 72 1013.6
20240614103028 56 136 2.6 7.0 0.00 0.00 0.00 72 1013.6
20240614101538 56 127 2.6 5.2 0.00 0.00 0.00 71 1013.5
20240614100029 56 93 0.9 7.8 0.00 0.00 0.00 71 1013.6
20240614094539 57 120 3.5 7.8 0.00 0.00 0.00 69 1013.6
20240614093018 58 121 0.0 4.3 0.00 0.00 0.00 69 1013.6
20240614091518 58 136 0.0 4.3 0.00 0.00 0.00 70 1013.8
20240614090016 58 91 1.7 4.3 0.00 0.00 0.00 71 1013.5
20240614084513 58 148 2.6 6.1 0.00 0.00 0.00 70 1013.7
20240614083009 58 96 0.9 5.2 0.00 0.00 0.00 69 1013.6
20240614081507 58 124 1.7 4.3 0.00 0.00 0.00 69 1014.0
20240614080017 59 148 2.6 7.0 0.00 0.00 0.00 69 1013.9
20240614074502 60 99 3.5 7.8 0.00 0.00 0.00 68 1013.9
20240614073104 60 158 1.7 6.1 0.00 0.00 0.00 68 1013.9
20240614071611 60 113 3.5 6.1 0.00 0.00 0.00 67 1014.0
20240614070055 60 115 4.3 7.8 0.00 0.00 0.00 67 1014.2
20240614064554 62 120 5.2 9.6 0.00 0.00 0.00 66 1014.1
20240614063127 63 105 3.5 6.1 0.00 0.00 0.00 65 1014.0
20240614061552 63 127 0.9 5.2 0.00 0.00 0.00 65 1014.0
20240614060054 64 122 0.9 5.2 0.00 0.00 0.00 64 1014.0
20240614054555 65 153 0.9 3.5 0.00 0.00 0.00 64 1013.9
20240614053048 66 127 1.7 7.8 0.00 0.00 0.00 63 1013.5
20240614051548 67 146 2.6 7.8 0.00 0.00 0.00 62 1013.6
20240614050048 68 144 0.0 2.6 0.00 0.00 0.00 60 1013.6
20240614044639 70 108 1.7 5.2 0.00 0.00 0.00 58 1013.3
20240614043036 71 123 2.6 7.0 0.00 0.00 0.00 56 1013.0
20240614041516 72 124 2.6 6.1 0.00 0.00 0.00 56 1012.6
20240614040006 73 86 0.0 4.3 0.00 0.00 0.00 56 1012.3
20240614034614 73 132 0.9 4.3 0.00 0.00 0.00 55 1012.2
20240614033001 74 112 0.0 4.3 0.00 0.00 0.00 53 1012.2
20240614031608 76 77 1.7 7.0 0.00 0.00 0.00 52 1012.1
20240614030042 78 184 1.7 7.8 0.00 0.00 0.00 50 1012.0
20240614024538 79 124 0.9 4.3 0.00 0.00 0.00 49 1011.8
20240614023001 80 146 1.7 7.0 0.00 0.00 0.00 48 1011.5
20240614021626 81 132 0.0 8.7 0.00 0.00 0.00 47 1011.4
20240614020102 82 125 2.6 7.0 0.00 0.00 0.00 45 1011.3
20240614014529 84 134 0.9 5.2 0.00 0.00 0.00 41 1011.2
20240614013043 84 131 2.6 9.6 0.00 0.00 0.00 41 1011.0
20240614011521 86 100 1.7 7.0 0.00 0.00 0.00 39 1011.0
20240614010025 85 143 0.9 9.6 0.00 0.00 0.00 41 1010.9
20240614004518 87 248 2.6 6.1 0.00 0.00 0.00 39 1010.8
20240614001605 88 131 2.6 7.0 0.00 0.00 0.00 38 1010.8
20240614000039 88 241 0.0 8.7 0.00 0.00 0.00 39 1010.8
20240613234525 87 179 1.7 7.8 0.00 0.00 0.00 39 1010.7
20240613233026 88 108 1.7 8.7 0.00 0.00 0.00 38 1010.8
20240613231518 89 104 1.7 5.2 0.00 0.00 0.00 37 1011.0
20240613230135 89 110 2.6 7.8 0.00 0.00 0.00 36 1010.9
20240613224602 90 108 0.0 6.1 0.00 0.00 0.00 36 1011.1
20240613221547 89 333 0.0 4.3 0.00 0.00 0.00 37 1011.1
20240613220059 90 146 0.0 3.5 0.00 0.00 0.00 36 1011.2
20240613214540 89 303 0.0 4.3 0.00 0.00 0.00 37 1011.4
20240613213038 88 146 0.0 5.2 0.00 0.00 0.00 38 1011.5
20240613211538 86 211 1.7 5.2 0.00 0.00 0.00 39 1011.4
20240613210034 86 205 0.0 4.3 0.00 0.00 0.00 40 1011.6
20240613204535 85 131 0.0 5.2 0.00 0.00 0.00 40 1011.7
20240613203030 84 8 0.0 4.3 0.00 0.00 0.00 41 1011.8
20240613201527 83 111 0.0 3.5 0.00 0.00 0.00 42 1011.9
20240613200033 82 185 0.0 3.5 0.00 0.00 0.00 44 1012.0
20240613194529 82 321 1.7 4.3 0.00 0.00 0.00 43 1012.2
20240613193035 80 262 0.0 3.5 0.00 0.00 0.00 45 1012.2
20240613191525 81 281 0.0 3.5 0.00 0.00 0.00 44 1012.3
20240613190022 81 279 0.0 3.5 0.00 0.00 0.00 43 1012.2
20240613184521 81 103 0.0 3.5 0.00 0.00 0.00 43 1012.2
20240613183018 79 248 0.0 3.5 0.00 0.00 0.00 47 1012.3
20240613181515 78 147 0.0 4.3 0.00 0.00 0.00 48 1012.2
20240613180017 77 235 0.0 3.5 0.00 0.00 0.00 48 1012.2
20240613174515 75 118 0.0 2.6 0.00 0.00 0.00 49 1012.2
20240613173027 75 86 0.0 3.5 0.00 0.00 0.00 48 1012.2
20240613171513 74 117 0.0 5.2 0.00 0.00 0.00 50 1012.3
20240613164559 72 119 0.9 6.1 0.00 0.00 0.00 50 1012.3
20240613164504 72 99 0.9 6.1 0.00 0.00 0.00 50 1012.3
20240613163042 71 112 0.0 4.3 0.00 0.00 0.00 51 1012.4
20240613161620 70 178 0.0 6.1 0.00 0.00 0.00 54 1012.3
20240613154542 66 116 0.9 6.1 0.00 0.00 0.00 60 1012.1
20240613153047 64 262 0.0 6.1 0.00 0.00 0.00 64 1012.1
20240613151534 63 120 0.9 5.2 0.00 0.00 0.00 68 1012.1
20240613150044 61 77 1.7 5.2 0.00 0.00 0.00 70 1012.0
20240613144538 60 85 3.5 5.2 0.00 0.00 0.00 73 1011.9
20240613143032 59 134 2.6 6.1 0.00 0.00 0.00 73 1011.9
20240613141529 59 143 2.6 6.1 0.00 0.00 0.00 74 1011.7
20240613140028 59 102 2.6 6.1 0.00 0.00 0.00 75 1011.6
20240613134538 58 134 2.6 5.2 0.00 0.00 0.00 76 1011.4
20240613133023 58 127 2.6 7.0 0.00 0.00 0.00 76 1011.2
20240613131522 58 146 0.9 5.2 0.00 0.00 0.00 76 1011.0
20240613130023 58 107 0.9 2.6 0.00 0.00 0.00 76 1010.8
20240613124533 58 125 0.9 3.5 0.00 0.00 0.00 76 1010.6
20240613123022 58 128 0.9 3.5 0.00 0.00 0.00 77 1010.4
20240613121519 58 112 0.9 3.5 0.00 0.00 0.00 77 1010.3
20240613120010 58 141 0.0 3.5 0.00 0.00 0.00 76 1010.1
20240613114516 58 104 0.0 1.7 0.00 0.00 0.00 76 1010.0
20240613113007 58 98 1.7 3.5 0.00 0.00 0.00 76 1009.9